Hourly Weather Petropavlovsk

Today, 9 May, Sunday

Time Temperature Precipitation Wind Pressure Humidity
00:00 +14°C° 0 mm 3 mps 749 mmHg 48%
01:00 +13°C° 0 mm 3 mps 749 mmHg 50%
02:00 +12°C° 0 mm 3 mps 748 mmHg 52%
03:00 +12°C° 0 mm 3 mps 748 mmHg 53%
04:00 +12°C° 0 mm 3 mps 748 mmHg 54%
05:00 +13°C° 0 mm 2 mps 748 mmHg 55%
06:00 +13°C° 0 mm 3 mps 749 mmHg 54%
07:00 +14°C° 0 mm 3 mps 749 mmHg 52%
08:00 +15°C° 0 mm 4 mps 749 mmHg 51%
09:00 +17°C° 0 mm 4 mps 749 mmHg 48%
10:00 +19°C° 0 mm 5 mps 749 mmHg 45%
11:00 +20°C° 0 mm 6 mps 749 mmHg 42%
12:00 +20°C° 0 mm 6 mps 749 mmHg 39%
13:00 +21°C° 0 mm 7 mps 749 mmHg 37%
14:00 +22°C° 0 mm 7 mps 748 mmHg 34%
15:00 +21°C° 0 mm 8 mps 748 mmHg 36%
16:00 +21°C° 0 mm 8 mps 748 mmHg 38%
17:00 +21°C° 0 mm 8 mps 748 mmHg 40%
18:00 +20°C° 0 mm 8 mps 749 mmHg 42%
19:00 +18°C° 0 mm 8 mps 749 mmHg 43%
20:00 +17°C° 0 mm 8 mps 749 mmHg 45%
21:00 +16°C° 0 mm 8 mps 750 mmHg 45%
22:00 +16°C° 0 mm 8 mps 750 mmHg 45%
23:00 +15°C° 0 mm 7 mps 750 mmHg 44%

Tomorrow, 10 May, Monday

Time Temperature Precipitation Wind Pressure Humidity
00:00 +14°C° 0 mm 7 mps 750 mmHg 45%
01:00 +12°C° 0 mm 7 mps 750 mmHg 47%
02:00 +11°C° 0 mm 7 mps 750 mmHg 48%
03:00 +11°C° 0 mm 7 mps 751 mmHg 49%
04:00 +10°C° 0 mm 6 mps 751 mmHg 50%
05:00 +9°C° 0 mm 6 mps 752 mmHg 51%
06:00 +10°C° 0 mm 7 mps 752 mmHg 50%
07:00 +10°C° 0 mm 7 mps 752 mmHg 49%
08:00 +10°C° 0 mm 7 mps 753 mmHg 48%
09:00 +12°C° 0 mm 7 mps 753 mmHg 44%
10:00 +13°C° 0 mm 8 mps 753 mmHg 41%
11:00 +15°C° 0 mm 8 mps 754 mmHg 37%
12:00 +15°C° 0 mm 7 mps 754 mmHg 34%
13:00 +16°C° 0 mm 7 mps 754 mmHg 32%
14:00 +17°C° 0 mm 7 mps 754 mmHg 30%
15:00 +17°C° 0 mm 7 mps 754 mmHg 30%
16:00 +17°C° 0 mm 7 mps 754 mmHg 30%
17:00 +17°C° 0 mm 6 mps 755 mmHg 31%
18:00 +15°C° 0 mm 5 mps 755 mmHg 37%
19:00 +14°C° 0 mm 4 mps 755 mmHg 42%
20:00 +12°C° 0 mm 3 mps 755 mmHg 48%
21:00 +12°C° 0 mm 3 mps 756 mmHg 50%
22:00 +11°C° 0 mm 3 mps 756 mmHg 52%
23:00 +10°C° 0 mm 3 mps 756 mmHg 54%

Day after tomorrow, 11 May, Tuesday

Time Temperature Precipitation Wind Pressure Humidity
00:00 +9°C° 0 mm 3 mps 756 mmHg 55%
01:00 +9°C° 0 mm 3 mps 756 mmHg 56%
02:00 +8°C° 0 mm 2 mps 757 mmHg 56%
03:00 +8°C° 0 mm 3 mps 757 mmHg 58%
04:00 +8°C° 0 mm 3 mps 757 mmHg 59%
05:00 +7°C° 0 mm 3 mps 757 mmHg 60%
06:00 +9°C° 0 mm 3 mps 758 mmHg 55%
07:00 +11°C° 0 mm 3 mps 758 mmHg 50%
08:00 +13°C° 0 mm 3 mps 758 mmHg 45%
09:00 +14°C° 0 mm 3 mps 758 mmHg 41%
10:00 +17°C° 0 mm 3 mps 758 mmHg 38%
11:00 +18°C° 0 mm 3 mps 758 mmHg 35%
12:00 +19°C° 0 mm 3 mps 758 mmHg 33%
13:00 +20°C° 0 mm 3 mps 757 mmHg 31%
14:00 +20°C° 0 mm 3 mps 757 mmHg 29%
15:00 +21°C° 0 mm 3 mps 757 mmHg 29%
16:00 +21°C° 0 mm 3 mps 757 mmHg 28%
17:00 +21°C° 0 mm 3 mps 757 mmHg 27%
18:00 +20°C° 0 mm 3 mps 757 mmHg 32%
19:00 +18°C° 0 mm 2 mps 757 mmHg 37%
20:00 +18°C° 0 mm 1 mps 757 mmHg 41%
21:00 +16°C° 0 mm 2 mps 757 mmHg 43%
22:00 +15°C° 0 mm 2 mps 757 mmHg 44%
23:00 +14°C° 0 mm 2 mps 758 mmHg 45%

12 May, Wednesday

Time Temperature Precipitation Wind Pressure Humidity
00:00 +14°C° 0 mm 2 mps 757 mmHg 45%
01:00 +14°C° 0 mm 2 mps 757 mmHg 46%
02:00 +13°C° 0 mm 2 mps 757 mmHg 46%
03:00 +13°C° 0 mm 2 mps 757 mmHg 48%
04:00 +13°C° 0 mm 2 mps 757 mmHg 49%
05:00 +13°C° 0 mm 2 mps 757 mmHg 51%
06:00 +14°C° 0 mm 2 mps 757 mmHg 47%
07:00 +16°C° 0 mm 2 mps 757 mmHg 43%
08:00 +18°C° 0 mm 3 mps 757 mmHg 39%
09:00 +19°C° 0 mm 3 mps 757 mmHg 35%
10:00 +21°C° 0 mm 4 mps 757 mmHg 32%
11:00 +22°C° 0 mm 5 mps 756 mmHg 28%
12:00 +22°C° 0 mm 5 mps 756 mmHg 33%
13:00 +21°C° 0 mm 6 mps 756 mmHg 37%
14:00 +21°C° 0 mm 7 mps 756 mmHg 42%
15:00 +20°C° 0 mm 6 mps 756 mmHg 41%
16:00 +20°C° 0 mm 6 mps 756 mmHg 40%
17:00 +19°C° 0 mm 6 mps 756 mmHg 39%
18:00 +17°C° 0 mm 5 mps 756 mmHg 42%
19:00 +15°C° 0 mm 5 mps 756 mmHg 44%
20:00 +14°C° 0 mm 4 mps 756 mmHg 46%
21:00 +13°C° 0 mm 3 mps 756 mmHg 48%
22:00 +12°C° 0 mm 3 mps 756 mmHg 50%
23:00 +12°C° 0 mm 2 mps 757 mmHg 53%

13 May, Thursday

Time Temperature Precipitation Wind Pressure Humidity
00:00 +10°C° 0 mm 2 mps 757 mmHg 53%
01:00 +9°C° 0 mm 2 mps 757 mmHg 54%
02:00 +9°C° 0 mm 3 mps 757 mmHg 55%
03:00 +8°C° 0 mm 2 mps 757 mmHg 57%
04:00 +8°C° 0 mm 2 mps 757 mmHg 59%
05:00 +8°C° 0 mm 2 mps 757 mmHg 61%
06:00 +9°C° 0 mm 2 mps 757 mmHg 55%
07:00 +11°C° 0 mm 3 mps 757 mmHg 48%
08:00 +13°C° 0 mm 3 mps 757 mmHg 42%
09:00 +14°C° 0 mm 3 mps 757 mmHg 38%
10:00 +15°C° 0 mm 4 mps 757 mmHg 35%
11:00 +18°C° 0 mm 4 mps 757 mmHg 32%
12:00 +18°C° 0 mm 4 mps 756 mmHg 32%
13:00 +19°C° 0 mm 4 mps 756 mmHg 31%
14:00 +20°C° 0 mm 4 mps 756 mmHg 31%
15:00 +20°C° 0 mm 4 mps 756 mmHg 31%
16:00 +20°C° 0 mm 3 mps 756 mmHg 31%
17:00 +21°C° 0 mm 3 mps 756 mmHg 31%
18:00 +19°C° 0 mm 2 mps 756 mmHg 36%
19:00 +19°C° 0 mm 1 mps 756 mmHg 41%
20:00 +18°C° 0 mm 1 mps 756 mmHg 45%
21:00 +16°C° 0 mm 1 mps 756 mmHg 46%
22:00 +16°C° 0 mm 1 mps 756 mmHg 47%
23:00 +15°C° 0 mm 1 mps 756 mmHg 48%

14 May, Friday

Time Temperature Precipitation Wind Pressure Humidity
00:00 +15°C° 0 mm 2 mps 756 mmHg 52%
01:00 +14°C° 0 mm 2 mps 757 mmHg 57%
02:00 +14°C° 0 mm 2 mps 757 mmHg 61%
03:00 +13°C° 0 mm 2 mps 757 mmHg 66%
04:00 +13°C° 0 mm 2 mps 757 mmHg 71%
05:00 +13°C° 0 mm 2 mps 757 mmHg 76%
06:00 +15°C° 0 mm 2 mps 757 mmHg 71%
07:00 +16°C° 0 mm 2 mps 758 mmHg 66%
08:00 +18°C° 0 mm 2 mps 758 mmHg 62%
09:00 +19°C° 0 mm 3 mps 758 mmHg 58%
10:00 +20°C° 0 mm 3 mps 758 mmHg 55%
11:00 +21°C° 0 mm 3 mps 758 mmHg 52%
12:00 +22°C° 0 mm 3 mps 758 mmHg 47%
13:00 +24°C° 0 mm 3 mps 758 mmHg 43%
14:00 +25°C° 0 mm 3 mps 757 mmHg 38%
15:00 +24°C° 0 mm 3 mps 757 mmHg 40%
16:00 +24°C° 0 mm 3 mps 757 mmHg 42%
17:00 +24°C° 0 mm 3 mps 757 mmHg 44%
18:00 +23°C° 0 mm 2 mps 757 mmHg 46%
19:00 +21°C° 0 mm 2 mps 757 mmHg 49%
20:00 +21°C° 0 mm 1 mps 757 mmHg 52%
21:00 +19°C° 0 mm 2 mps 757 mmHg 54%
22:00 +18°C° 0 mm 2 mps 757 mmHg 56%
23:00 +17°C° 0 mm 2 mps 757 mmHg 58%
Show more